Temperature
14 14 14 13 13 13 13 13 13 12 12 12 11 12 11 11 11 11 11 11 11 11 11 11 11 11 11 11 11 11 11 11 11 11 11 11 10 10
13 13 13 13 13 13 13 13 13 12 12 12 12 11 11 11 11 11 11 11 11 11 11 11 10 10 11 11 11 11 11 10 10 10 10 10 10 10
13 13 13 13 13 13 12 12 12 12 12 12 11 11 11 11 11 11 11 11 11 10 10 10 10 10 10 10 10 10 10 10 10 10 10 10 10 10
13 13 13 12 12 12 12 12 12 12 12 12 11 11 11 11 11 11 11 11 10 10 10 10 10 10 10 10 10 10 10 10 10 10 10 10 10 10
12 12 12 12 12 12 12 12 12 12 12 11 11 11 11 11 11 10 10 10 10 10 10 10 10 10 10 10 10 10 10 10 9 9 9 10 9 9
12 12 12 12 12 12 12 12 12 11 11 11 11 11 11 10 10 10 10 10 10 10 10 10 10 10 10 10 10 10 9 9 9 9 9 9 9 9
12 12 12 12 11 11 11 11 11 11 11 11 10 10 10 10 10 10 10 10 10 10 10 10 10 10 9 9 9 9 9 9 9 9 9 9 9 9
12 12 11 11 11 11 11 11 11 11 11 10 10 10 10 10 10 10 10 10 10 10 10 10 9 9 9 9 9 9 9 9 9 9 9 9 9 9
11 11 11 11 11 11 11 11 10 10 10 10 10 10 10 10 10 10 10 10 10 9 9 9 9 9 9 9 9 9 9 9 9 8 8 8 9 9
11 11 11 11 11 11 10 10 10 10 10 10 10 10 10 9 9 9 9 9 9 9 9 9 9 9 9 9 9 9 9 9 8 8 8 8 8 8
11 11 11 10 10 10 10 10 10 10 10 10 9 9 9 9 9 9 9 8 9 9 8 8 9 8 8 9 8 8 8 8 8 8 8 8 8 8
10 10 10 10 10 10 10 10 9 9 9 9 9 9 9 9 8 8 8 8 8 8 8 8 8 8 8 8 8 8 8 8 8 8 8 8 8 7
10 10 10 10 10 9 9 9 9 9 9 9 9 9 8 8 8 8 8 8 8 8 8 8 8 8 8 8 8 8 8 8 8 8 8 7 7 7
10 10 10 10 9 9 9 9 9 9 8 8 8 8 8 8 8 8 8 8 7 8 8 7 7 7 7 7 7 8 8 7 7 7 7 7 7 7
10 10 9 9 9 9 9 8 8 8 8 8 8 8 8 8 7 7 7 7 7 7 7 7 7 7 7 7 7 7 7 7 7 7 7 7 7 7
9 9 9 9 9 8 8 8 8 8 8 8 8 8 7 7 7 7 7 7 7 7 7 7 7 7 7 7 7 7 7 7 7 7 6 6 6 6
9 9 9 8 8 8 8 8 8 7 7 7 7 7 7 7 7 7 7 7 7 7 7 7 7 7 7 7 7 7 7 6 6 6 6 6 6 6
9 8 8 8 8 8 8 7 7 7 7 7 7 7 6 6 6 6 6 6 6 6 6 6 6 6 6 6 6 6 6 6 6 6 6 6 6 6
8 8 8 8 8 8 7 7 7 7 7 7 6 6 6 6 6 6 6 6 6 6 6 6 6 6 5 5 6 6 6 6 6 6 6 5 6 6
8 8 8 8 7 7 7 7 7 7 7 7 6 6 6 6 6 6 6 6 6 6 6 6 6 5 5 5 5 6 6 5 5 5 5 5 5 5
7 7 7 7 7 7 7 7 7 7 7 7 6 6 6 6 5 5 5 5 5 5 5 5 6 5 5 5 5 5 5 5 5 5 5 5 5 5
7 7 7 7 7 7 7 7 7 6 6 6 6 6 6 6 5 5 5 5 5 5 5 5 5 5 5 5 5 5 5 5 5 5 4 4 4 4
7 7 7 7 7 7 7 7 6 6 6 6 6 6 6 5 5 5 5 5 5 5 5 5 5 5 4 4 4 4 5 5 4 4 4 4 4 4
Wind_Speed
2 2 1 1 1 2 2 4 4 2 2 2 1 1 2 3 3 4 3 3 4 3 3 4 4 4 5 5 5 5 4 4 5 5 6 6 6 6
1 2 1 1 1 1 2 2 2 3 2 2 3 2 3 3 3 3 3 3 3 3 3 3 3 4 4 4 4 4 4 4 5 5 5 5 5 5
1 2 1 1 1 1 1 1 1 2 2 2 1 1 2 2 2 3 2 2 2 2 2 2 2 3 3 3 3 3 3 4 3 4 4 5 5 5
2 2 1 1 1 1 1 2 2 2 3 2 1 1 1 2 2 2 2 2 2 2 2 2 1 2 2 2 2 2 3 3 3 3 3 4 5 5
2 3 2 2 1 1 2 2 1 1 2 3 1 1 0 1 1 0 1 0 2 2 3 2 2 2 2 1 1 2 2 2 2 2 2 3 4 4
2 2 3 3 3 3 2 2 2 2 2 2 1 1 0 0 1 1 0 1 1 2 2 3 3 3 3 3 3 2 3 2 2 1 2 3 4 4
1 2 2 2 3 3 2 3 3 3 2 2 2 1 1 1 2 2 2 1 1 1 1 2 2 2 3 5 4 4 4 4 3 2 2 4 4 4
2 2 2 2 2 2 3 4 5 4 3 3 2 2 3 3 2 2 2 1 2 2 1 2 1 2 4 5 6 6 5 5 5 5 4 4 5 5
3 2 1 1 1 1 1 2 3 4 5 5 4 4 4 4 4 3 3 3 3 2 2 2 1 3 5 5 7 8 8 7 7 7 6 6 5 6
3 3 3 2 2 3 2 1 1 1 3 3 4 5 5 5 6 5 4 2 1 1 3 2 2 3 4 5 7 9 9 8 8 8 8 7 7 7
3 3 3 2 3 3 3 3 1 2 2 3 4 4 5 6 6 3 3 2 2 2 2 2 2 2 2 3 6 8 9 9 9 9 9 9 9 8
2 2 3 4 4 4 3 4 4 3 2 1 1 2 2 4 6 6 5 3 2 2 3 3 2 1 2 2 3 4 6 8 9 10 10 10 9 6
2 2 3 5 5 5 4 4 5 3 2 2 1 1 1 1 3 5 5 4 4 4 4 4 3 3 2 2 2 3 4 5 6 8 9 10 10 8
4 3 3 5 5 5 4 4 4 3 1 1 1 2 2 2 3 3 5 6 6 5 6 6 3 4 3 2 3 3 3 5 5 5 6 8 9 11
3 4 4 5 4 4 5 4 3 2 2 2 3 4 4 3 2 2 3 3 3 4 5 7 4 4 4 4 4 3 3 3 5 5 5 6 6 6
2 2 2 2 2 2 2 2 2 3 3 4 4 3 2 2 2 2 2 2 2 3 3 6 7 6 4 4 4 4 4 3 3 4 5 5 6 8
2 1 0 0 1 1 2 2 2 2 3 3 3 3 3 3 3 2 2 2 2 3 3 2 3 5 5 5 4 5 4 4 4 4 3 5 6 8
3 2 2 3 3 3 3 3 3 4 4 4 4 4 4 4 3 2 2 3 4 4 4 3 1 1 2 3 6 6 5 5 4 4 4 4 7 7
3 3 4 4 4 4 4 4 4 4 4 4 4 4 4 4 3 4 4 4 4 4 4 3 3 3 4 6 5 7 6 5 4 4 5 5 7 7
4 4 5 4 4 4 4 4 4 3 4 4 4 4 4 4 4 4 4 5 5 4 4 3 5 6 7 7 5 4 8 6 5 6 5 5 6 7
5 5 5 4 4 5 5 4 4 4 4 5 5 5 5 5 5 5 5 6 6 5 6 6 7 7 4 2 3 4 4 9 9 6 4 4 4 4
5 5 5 5 5 5 5 4 4 4 4 4 5 5 5 5 6 6 6 6 6 6 7 5 3 3 3 5 7 7 6 4 7 11 11 9 5 5
5 5 4 4 4 4 4 5 5 5 5 5 4 5 5 5 5 6 6 6 5 6 5 4 3 3 5 6 7 7 7 6 3 3 6 10 14 16
Wind_Direction
167 155 147 162 150 154 159 166 161 188 243 237 239 242 170 153 147 137 135 139 136 127 116 107 97 84 79 73 67 69 76 91 88 83 86 100 111 111
158 129 124 159 145 146 162 171 166 170 209 224 223 221 180 169 173 155 158 141 131 137 132 129 128 113 97 83 74 74 81 101 99 94 94 98 110 116
151 152 169 156 142 163 157 145 149 148 180 247 235 191 166 171 156 158 154 143 145 144 153 142 139 134 118 100 85 87 89 94 100 102 113 119 119 120
183 164 178 159 150 182 173 177 180 166 164 197 224 192 202 190 175 172 179 185 188 192 189 177 173 169 151 126 110 115 113 103 100 97 118 129 130 127
180 171 183 163 180 196 186 189 188 168 151 164 193 189 150 164 127 167 173 228 221 227 225 225 221 207 199 198 181 155 139 126 113 106 128 141 138 135
187 189 192 185 198 198 194 187 167 147 135 143 152 153 150 158 135 162 275 308 273 251 235 233 229 234 243 241 224 193 178 169 154 137 157 161 157 158
197 212 210 194 192 191 183 174 160 152 145 150 161 153 193 185 209 197 196 246 293 259 247 256 240 246 252 246 232 217 205 201 202 210 206 190 185 186
189 216 236 207 191 180 171 166 164 165 173 175 184 194 216 209 187 192 180 188 272 263 184 256 223 244 250 238 229 223 221 219 218 221 223 214 204 203
197 198 211 222 172 169 159 155 177 184 180 182 190 209 208 205 185 192 200 202 223 225 167 248 257 252 251 247 233 228 227 227 226 226 228 228 224 220
203 196 188 206 204 172 155 155 194 225 205 193 203 213 212 201 195 195 196 199 264 229 167 211 246 248 259 249 238 228 228 230 228 227 227 229 231 230
218 202 192 202 209 160 152 169 204 268 232 216 216 215 216 204 184 157 159 166 254 257 191 189 230 245 262 260 246 233 231 231 229 231 232 230 228 227
225 217 207 205 203 183 181 186 208 239 244 258 257 258 217 204 197 187 186 188 201 239 211 184 197 181 275 272 253 244 234 236 237 237 235 233 229 221
217 229 227 211 204 201 203 210 220 215 205 206 221 257 284 232 213 204 195 189 198 225 208 180 192 188 204 261 279 245 224 228 236 241 241 239 232 221
219 226 224 215 210 206 213 225 214 185 179 188 214 233 240 245 242 221 215 213 215 222 207 186 191 192 190 218 257 262 238 231 224 229 238 243 239 235
222 223 222 215 212 220 226 221 206 192 190 212 228 236 235 238 237 234 228 232 249 251 220 204 197 198 196 212 228 232 249 248 224 222 226 224 227 225
225 230 224 208 205 228 237 230 220 208 205 219 233 238 234 230 238 230 229 227 251 282 261 226 210 197 209 222 218 235 225 231 232 226 226 235 238 233
172 139 199 213 223 249 262 249 235 221 223 225 224 229 231 231 243 236 222 217 222 246 265 273 234 216 215 208 223 236 235 240 237 227 220 244 246 239
159 199 219 222 223 228 233 245 243 235 233 228 225 226 228 230 237 242 225 220 232 242 248 248 240 299 316 270 225 231 235 239 239 225 215 238 257 250
193 215 222 225 231 231 230 233 240 238 229 225 229 232 232 233 233 236 232 231 239 243 245 231 213 206 239 263 259 220 224 238 232 231 227 230 248 255
218 222 227 229 232 232 234 238 242 237 227 226 229 232 230 231 235 237 233 230 237 244 250 238 223 219 227 243 252 250 224 221 225 237 242 244 257 266
226 231 232 230 234 234 234 233 232 232 230 224 225 230 229 227 232 236 239 240 237 239 243 246 242 232 233 234 262 265 250 228 225 229 232 246 265 269
229 232 234 235 236 235 233 230 230 231 231 233 229 229 229 225 229 234 237 239 237 238 247 255 245 213 211 231 254 261 264 260 249 244 236 228 223 235
234 235 237 237 238 236 232 229 229 234 232 231 235 233 229 233 234 233 237 238 240 242 248 252 243 225 230 236 251 260 263 263 259 261 259 252 247 252
Height
1536 1536 1537 1537 1537 1537 1538 1538 1538 1537 1538 1538 1538 1538 1538 1537 1537 1536 1536 1536 1536 1536 1535 1535 1535 1534 1534 1533 1533 1533 1532 1532 1532 1532 1532 1532 1532 1533
1534 1535 1535 1535 1535 1536 1536 1536 1537 1536 1535 1536 1536 1536 1536 1536 1536 1535 1535 1535 1535 1535 1535 1534 1534 1534 1533 1533 1532 1532 1531 1531 1531 1531 1531 1531 1532 1532
1532 1533 1533 1533 1533 1533 1534 1534 1534 1534 1534 1534 1534 1534 1534 1534 1534 1534 1533 1533 1533 1533 1533 1533 1533 1533 1532 1532 1532 1531 1531 1531 1531 1531 1530 1531 1531 1531
1530 1531 1531 1531 1531 1531 1531 1531 1532 1532 1532 1531 1532 1532 1533 1533 1533 1532 1532 1532 1532 1532 1532 1532 1532 1531 1531 1531 1531 1531 1530 1530 1530 1529 1529 1530 1530 1531
1528 1528 1528 1529 1529 1529 1529 1529 1529 1529 1530 1530 1530 1530 1530 1531 1531 1531 1530 1530 1530 1530 1530 1530 1530 1530 1530 1530 1530 1529 1529 1529 1529 1528 1528 1528 1529 1529
1526 1526 1526 1526 1527 1526 1526 1526 1527 1527 1527 1527 1528 1528 1528 1528 1529 1529 1528 1529 1528 1529 1528 1528 1528 1528 1528 1528 1528 1528 1528 1528 1527 1527 1526 1527 1527 1528
1523 1524 1524 1524 1525 1525 1525 1524 1525 1525 1525 1525 1525 1525 1526 1526 1526 1526 1526 1526 1526 1527 1527 1527 1526 1526 1526 1526 1526 1526 1526 1526 1526 1525 1525 1525 1525 1526
1521 1521 1522 1522 1522 1523 1523 1523 1523 1523 1523 1523 1523 1523 1523 1523 1524 1524 1524 1524 1524 1525 1525 1525 1524 1524 1524 1524 1524 1524 1524 1524 1524 1524 1523 1523 1523 1524
1518 1518 1519 1519 1520 1520 1520 1520 1520 1520 1521 1521 1520 1520 1521 1521 1521 1521 1521 1521 1521 1522 1522 1521 1522 1521 1521 1521 1522 1522 1522 1522 1522 1522 1522 1521 1521 1522
1516 1516 1516 1517 1517 1517 1517 1517 1517 1517 1517 1517 1517 1518 1518 1518 1519 1519 1519 1519 1519 1519 1520 1519 1519 1519 1519 1519 1519 1519 1519 1519 1520 1520 1519 1519 1519 1519
1513 1514 1514 1514 1514 1514 1514 1514 1514 1514 1514 1514 1515 1515 1515 1515 1516 1516 1516 1516 1515 1515 1516 1516 1516 1516 1516 1516 1516 1516 1517 1517 1517 1517 1517 1517 1517 1517
1510 1511 1511 1511 1511 1511 1511 1511 1510 1510 1511 1511 1511 1511 1512 1512 1512 1512 1513 1513 1512 1512 1513 1513 1513 1513 1513 1513 1513 1513 1514 1514 1514 1514 1514 1514 1513 1513
1507 1507 1508 1508 1508 1508 1508 1508 1508 1508 1508 1508 1508 1508 1508 1508 1508 1509 1509 1509 1509 1509 1510 1510 1510 1510 1510 1509 1510 1510 1510 1510 1510 1510 1510 1510 1510 1510
1504 1504 1504 1505 1504 1504 1504 1504 1505 1505 1504 1504 1504 1504 1504 1504 1505 1505 1505 1506 1506 1506 1507 1507 1506 1506 1506 1506 1506 1506 1506 1506 1506 1506 1506 1506 1506 1506
1501 1501 1501 1501 1501 1501 1500 1501 1501 1501 1500 1500 1500 1500 1501 1501 1501 1501 1501 1502 1502 1502 1502 1503 1503 1502 1502 1502 1501 1501 1501 1501 1502 1501 1501 1501 1501 1501
1497 1497 1497 1497 1497 1497 1496 1496 1497 1497 1497 1496 1496 1497 1497 1497 1497 1497 1497 1497 1497 1498 1498 1498 1498 1498 1498 1497 1497 1496 1497 1496 1496 1497 1496 1496 1496 1495
1493 1493 1492 1492 1492 1492 1492 1492 1493 1492 1492 1492 1493 1492 1493 1493 1493 1494 1494 1494 1493 1493 1493 1494 1494 1494 1493 1493 1492 1491 1491 1491 1491 1491 1491 1490 1490 1490
1489 1488 1488 1488 1488 1488 1488 1488 1488 1488 1488 1488 1488 1488 1488 1489 1489 1489 1489 1489 1489 1489 1489 1489 1489 1489 1488 1487 1488 1486 1486 1486 1486 1486 1485 1484 1483 1484
1484 1483 1484 1484 1484 1484 1484 1484 1484 1484 1484 1484 1484 1484 1484 1484 1484 1484 1485 1484 1484 1484 1484 1484 1484 1484 1482 1481 1481 1482 1481 1480 1480 1480 1479 1478 1477 1477
1479 1479 1479 1479 1479 1480 1480 1480 1480 1480 1479 1479 1479 1479 1479 1479 1480 1480 1480 1480 1479 1479 1479 1479 1478 1478 1477 1477 1475 1475 1476 1475 1474 1473 1473 1473 1472 1471
1474 1474 1474 1475 1475 1475 1475 1475 1475 1475 1475 1474 1474 1474 1474 1474 1474 1474 1475 1474 1474 1473 1473 1472 1472 1473 1473 1472 1471 1469 1469 1469 1469 1468 1467 1466 1465 1464
1469 1469 1469 1470 1470 1470 1470 1470 1470 1470 1469 1469 1469 1469 1469 1469 1469 1469 1469 1469 1468 1468 1467 1467 1467 1467 1466 1465 1464 1463 1463 1463 1463 1462 1462 1461 1459 1457
1463 1464 1464 1464 1465 1465 1465 1465 1464 1464 1464 1464 1464 1463 1463 1463 1463 1463 1463 1463 1462 1462 1461 1461 1461 1461 1460 1459 1458 1457 1456 1456 1455 1455 1455 1455 1454 1453